FW4315 Weather Reports


Display with metric or nautical units.
time (UTC)temp
F
wind
direction
speed
MPH
gust
MPH
rain 1hr
in
rain 24hr
in
rain mn
in
humidity
%
barometer
mb
20260507082704 53 106 1.0 3.0 0.00 0.00 0.00 83
20260507081804 51 32 0.0 3.0 0.00 0.00 0.00 81
20260507080904 52 304 1.0 4.0 0.00 0.00 0.00 82
20260507080005 52 161 3.0 6.0 0.00 0.00 0.00 82
20260507075404 52 198 2.0 6.0 0.00 0.00 0.00 82
20260507074504 50 133 2.0 5.0 0.00 0.00 0.00 86
20260507073603 49 107 1.0 4.0 0.00 0.00 0.00 86
20260507072725 48 198 2.0 6.0 0.00 0.00 0.00 86
20260507071825 48 239 1.0 6.0 0.00 0.00 0.00 88
20260507070904 47 106 2.0 5.0 0.00 0.00 0.00 89
20260507070009 46 149 2.0 4.0 0.00 0.00 0.00 89
20260507065424 45 153 1.0 4.0 0.00 0.00 0.00 90
20260507064504 45 98 1.0 3.0 0.00 0.00 0.00 90
20260507063603 45 77 1.0 5.0 0.00 0.00 0.00 91
20260507062704 44 153 2.0 7.0 0.00 0.00 0.00 93
20260507061804 43 299 0.0 3.0 0.00 0.00 0.00 95
20260507060904 42 131 1.0 4.0 0.00 0.00 0.00 96
20260507060005 40 150 1.0 3.0 0.00 0.00 0.00 95
20260507055404 40 188 0.0 1.0 0.00 0.00 0.00 94
20260507054504 40 0 0.0 0.0 0.00 0.00 0.00 93
20260507053603 40 5 0.0 3.0 0.00 0.00 0.00 93
20260507052704 40 29 2.0 4.0 0.00 0.00 0.00 93
20260507051804 40 147 1.0 4.0 0.00 0.00 0.00 94
20260507050904 40 97 1.0 3.0 0.00 0.00 0.00 94
20260507050025 39 38 1.0 3.0 0.00 0.00 0.00 93
20260507045404 40 7 1.0 3.0 0.00 0.00 0.00 93
20260507044504 40 358 0.0 3.0 0.00 0.00 0.00 93
20260507043624 40 142 0.0 3.0 0.00 0.00 0.00 93
20260507042704 40 0 0.0 0.0 0.00 0.00 0.00 93
20260507041803 40 147 1.0 3.0 0.00 0.00 0.00 94
20260507040903 40 112 0.0 2.0 0.00 0.00 0.00 93
20260507040004 39 0 0.0 0.0 0.00 0.00 0.00 93
20260507035403 39 0 0.0 0.0 0.00 0.00 0.00 93
20260507034525 39 0 0.0 0.0 0.00 0.00 0.00 93
20260507033603 39 91 0.0 2.0 0.00 0.00 0.00 93
20260507032704 38 272 0.0 1.0 0.00 0.00 0.00 91
20260507031804 39 0 0.0 0.0 0.00 0.00 0.00 91
20260507030904 39 79 0.0 1.0 0.00 0.00 0.00 91
20260507030004 40 33 0.0 2.0 0.00 0.01 0.00 91
20260507025404 40 44 0.0 2.0 0.00 0.01 0.00 91
20260507024504 40 55 0.0 2.0 0.00 0.01 0.00 91
20260507023604 41 32 0.0 2.0 0.00 0.01 0.00 91
20260507022704 41 0 0.0 0.0 0.00 0.01 0.00 90
20260507021803 41 0 0.0 0.0 0.00 0.01 0.00 90
20260507020904 42 0 0.0 0.0 0.00 0.01 0.00 90
20260507020004 42 128 0.0 1.0 0.00 0.01 0.00 91
20260507015403 42 179 0.0 1.0 0.00 0.01 0.00 90
20260507014503 42 219 0.0 2.0 0.00 0.01 0.00 90
20260507013624 42 226 0.0 1.0 0.00 0.01 0.00 89
20260507012703 42 0 0.0 0.0 0.00 0.01 0.00 89
20260507011803 42 89 0.0 2.0 0.00 0.01 0.00 89
20260507010903 43 15 0.0 1.0 0.00 0.01 0.00 89
20260507010004 43 132 0.0 1.0 0.00 0.01 0.00 88
20260507005404 43 146 0.0 2.0 0.00 0.01 0.00 88
20260507004504 43 139 0.0 3.0 0.00 0.01 0.00 88
20260507003604 43 0 0.0 0.0 0.00 0.01 0.00 88
20260507002703 44 245 2.0 4.0 0.00 0.01 0.00 88
20260507001804 44 147 2.0 4.0 0.00 0.01 0.00 87
20260507000904 44 213 2.0 5.0 0.00 0.01 0.00 88
20260507000017 44 266 1.0 4.0 0.00 0.01 0.00 88
20260506235404 44 261 1.0 5.0 0.00 0.01 0.01 89
20260506234504 43 281 3.0 6.0 0.00 0.01 0.01 88
20260506233604 43 0 0.0 0.0 0.00 0.01 0.01 87
20260506232704 44 110 0.0 1.0 0.00 0.01 0.01 87
20260506231804 44 121 0.0 1.0 0.00 0.01 0.01 86
20260506230904 44 0 0.0 0.0 0.00 0.01 0.01 86
20260506230004 44 0 0.0 0.0 0.00 0.01 0.01 85
20260506225404 45 0 0.0 0.0 0.00 0.01 0.01 84
20260506224504 45 0 0.0 0.0 0.00 0.01 0.01 84
20260506223603 46 113 1.0 3.0 0.00 0.01 0.01 83
20260506222704 46 77 0.0 2.0 0.00 0.01 0.01 82
20260506221804 47 294 0.0 2.0 0.00 0.01 0.01 81
20260506220903 47 219 0.0 2.0 0.00 0.01 0.01 80
20260506220005 48 176 1.0 4.0 0.00 0.01 0.01 79
20260506215404 48 170 1.0 5.0 0.00 0.01 0.01 79
20260506214503 48 185 2.0 5.0 0.00 0.01 0.01 80
20260506213604 47 157 4.0 10.0 0.00 0.01 0.01 82
20260506212703 47 125 0.0 1.0 0.00 0.01 0.01 83
20260506211804 47 76 0.0 3.0 0.00 0.01 0.01 83
20260506210904 47 80 0.0 3.0 0.00 0.01 0.01 82
20260506210004 48 231 1.0 2.0 0.00 0.01 0.01 82
20260506205404 48 224 0.0 2.0 0.00 0.01 0.01 81
20260506204504 48 0 0.0 0.0 0.00 0.01 0.01 81
20260506203604 49 247 0.0 1.0 0.00 0.01 0.01 79
20260506202703 50 247 0.0 1.0 0.00 0.01 0.01 79
20260506201824 51 53 0.0 2.0 0.00 0.01 0.01 77
20260506200904 52 51 0.0 3.0 0.00 0.01 0.01 76
20260506200025 52 53 0.0 3.0 0.00 0.01 0.01 75
20260506195424 52 233 0.0 2.0 0.00 0.01 0.01 74
20260506194503 53 248 2.0 3.0 0.00 0.01 0.01 74
20260506193604 55 257 0.0 1.0 0.00 0.01 0.01 72
20260506192703 56 138 1.0 2.0 0.00 0.01 0.01 67
20260506191803 57 131 1.0 3.0 0.00 0.01 0.01 63
20260506190903 58 0 0.0 0.0 0.00 0.01 0.01 63
20260506190004 59 12 0.0 2.0 0.00 0.01 0.01 59
20260506185404 59 7 0.0 2.0 0.00 0.01 0.01 60
20260506184504 60 340 1.0 3.0 0.00 0.01 0.01 55
20260506183624 60 1 1.0 3.0 0.00 0.01 0.01 53
20260506182704 61 28 1.0 3.0 0.00 0.01 0.01 51
20260506181824 61 77 1.0 3.0 0.00 0.01 0.01 50
20260506180903 62 99 1.0 4.0 0.00 0.01 0.01 46
20260506180005 63 64 1.0 4.0 0.00 0.01 0.01 46
20260506175404 63 80 2.0 6.0 0.00 0.01 0.01 46
20260506174504 63 69 2.0 4.0 0.00 0.01 0.01 48
20260506173625 62 53 2.0 5.0 0.00 0.01 0.01 50
20260506172704 62 80 1.0 4.0 0.00 0.01 0.01 51
20260506171804 61 122 2.0 4.0 0.00 0.01 0.01 49
20260506170904 61 113 3.0 6.0 0.00 0.01 0.01 49
20260506170004 62 124 4.0 7.0 0.00 0.01 0.01 48
20260506165405 62 102 2.0 6.0 0.00 0.01 0.01 49
20260506164504 62 85 2.0 5.0 0.00 0.01 0.01 48
20260506163604 62 98 4.0 7.0 0.00 0.01 0.01 50
20260506162704 62 64 3.0 6.0 0.00 0.01 0.01 47
20260506161826 62 66 3.0 7.0 0.00 0.01 0.01 50
20260506160904 62 83 2.0 6.0 0.00 0.01 0.01 48
20260506160025 62 78 3.0 7.0 0.00 0.01 0.01 52
20260506155405 62 139 4.0 9.0 0.00 0.01 0.01 52
20260506154504 61 172 5.0 10.0 0.00 0.01 0.01 56
20260506153625 60 169 5.0 11.0 0.00 0.01 0.01 58
20260506152704 60 117 3.0 7.0 0.00 0.01 0.01 51
20260506151804 60 243 2.0 5.0 0.00 0.01 0.01 50
20260506150904 60 242 4.0 7.0 0.00 0.01 0.01 49
20260506150004 60 292 3.0 10.0 0.00 0.01 0.01 50
20260506145425 61 337 4.0 10.0 0.00 0.01 0.01 48
20260506144504 62 349 5.0 10.0 0.00 0.01 0.01 49
20260506143625 62 351 6.0 11.0 0.00 0.01 0.01 51
20260506142704 63 46 3.0 7.0 0.00 0.01 0.01 47
20260506141804 63 58 4.0 8.0 0.00 0.01 0.01 48
20260506140925 62 34 4.0 12.0 0.00 0.01 0.01 51
20260506140005 61 15 4.0 12.0 0.00 0.01 0.01 55
20260506135404 60 359 2.0 6.0 0.00 0.01 0.01 53
20260506134504 61 90 3.0 8.0 0.00 0.01 0.01 52
20260506133604 60 154 4.0 8.0 0.00 0.01 0.01 54
20260506132725 60 129 2.0 6.0 0.00 0.01 0.01 53
20260506131804 61 12 2.0 5.0 0.00 0.01 0.01 54
20260506130904 60 162 3.0 8.0 0.00 0.01 0.01 54
20260506130026 60 178 3.0 7.0 0.00 0.01 0.01 57
20260506125405 58 233 3.0 7.0 0.00 0.01 0.01 56
20260506124504 58 271 4.0 8.0 0.00 0.01 0.01 57
20260506123604 58 313 2.0 5.0 0.00 0.01 0.01 58
20260506122704 58 151 2.0 7.0 0.00 0.01 0.01 57
20260506121804 58 121 2.0 5.0 0.00 0.01 0.01 57
20260506120904 58 115 4.0 7.0 0.00 0.01 0.01 57
20260506120005 58 39 3.0 7.0 0.00 0.01 0.01 62
20260506115404 57 31 3.0 7.0 0.00 0.01 0.01 62
20260506114504 57 71 3.0 8.0 0.00 0.01 0.01 62
20260506113604 57 56 3.0 8.0 0.00 0.01 0.01 64
20260506112725 56 296 3.0 7.0 0.00 0.01 0.01 65
20260506111805 56 326 1.0 5.0 0.00 0.01 0.01 66
20260506110904 56 86 2.0 8.0 0.00 0.01 0.01 67
20260506110025 56 84 3.0 8.0 0.00 0.01 0.01 66
20260506105404 57 71 3.0 7.0 0.00 0.01 0.01 66
20260506104504 57 160 4.0 10.0 0.00 0.01 0.01 69
20260506103604 57 133 4.0 10.0 0.00 0.01 0.01 65
20260506102704 56 77 3.0 10.0 0.00 0.01 0.01 73
20260506101804 55 122 4.0 13.0 0.00 0.01 0.01 73
20260506100904 54 127 6.0 13.0 0.00 0.01 0.01 74
20260506100005 54 135 5.0 10.0 0.00 0.01 0.01 76
20260506095425 54 137 3.0 10.0 0.00 0.01 0.01 77
20260506094504 53 93 3.0 8.0 0.00 0.01 0.01 78
20260506093604 52 78 5.0 11.0 0.00 0.01 0.01 80
20260506092704 52 113 4.0 10.0 0.00 0.01 0.01 84
20260506091804 50 133 3.0 8.0 0.00 0.01 0.01 84
20260506090903 49 145 3.0 8.0 0.00 0.01 0.01 87
20260506090004 48 163 2.0 7.0 0.00 0.01 0.01 89
20260506085404 48 149 2.0 7.0 0.00 0.01 0.01 91
20260506084504 47 120 3.0 7.0 0.00 0.01 0.01 91
20260506083604 46 98 4.0 9.0 0.00 0.01 0.01 92